Wissant - Hors Challenge

le Trail de la Côte d'Opale à Wissant (42.00 km)

dimanche 10 septembre 2017

Le Classement original se trouve sur : http://www.chronorace.be
 
LE TRAIL DE LA CÔTE D'OPALE - WISSANT
DISTANCE : 42.00 km
dimanche 10 septembre 2017
 
Place Dos NOM Pays Catégorie Pl/cat temps temps/km Vitesse
1 1036 BRIENS CEDRIC FRA SH 1 3:32:45 05:04 11.84
2 1333 BREUVART MARTIN FRA SH 2 3:33:28 05:05 11.81
3 1566 DELCOUR THOMAS FRA SH 3 3:36:50 05:10 11.62
4 1025 LEPERS DAMIEN FRA V2 1 3:37:54 05:11 11.56
5 1118 FASQUEL DOMINIQUE FRA V1 1 3:38:06 05:12 11.55
6 1495 POIRET GEORGE FRA V1 2 3:42:02 05:17 11.35
7 1616 LEZY BART BEL SH 4 3:42:23 05:18 11.33
8 1547 PECQUEUX LUCAS FRA SH 5 3:47:12 05:25 11.09
9 1516 BIANCHI BENJAMIN FRA SH 6 3:47:12 05:25 11.09
10 1107 VERBRIGGHE NORBERT FRA SH 7 3:49:16 05:28 10.99
11 1540 DEMARET FREDERIK BEL V1 3 3:51:18 05:30 10.89
12 1182 BEUGNET MATHIEU FRA SH 8 3:52:37 05:32 10.83
13 1094 ROSILLON CAROLINE FRA SD 1 3:53:40 05:34 10.78
14 1185 NOCLERCQ CHRISTOPHE FRA V1 4 3:54:14 05:35 10.76
15 1166 CHERPION JEROME BEL SH 9 3:54:24 05:35 10.75
16 1613 LEMAZURIER LOÏC FRA SH 10 3:54:37 05:35 10.74
17 1077 POCLET THIBAUT FRA SH 11 3:54:45 05:35 10.73
18 1490 SAUVAGE VALERIE FRA SD 2 3:56:02 05:37 10.68
19 1289 BOIDIN CLÉMENT FRA SH 12 3:56:04 05:37 10.67
20 571 SOISSONS MARC FRA V2 2 3:57:20 05:39 10.62
21 1283 LEMAIRE PIERRE FRA SH 13 3:58:35 05:41 10.56
22 1594 DEKEISTER OLIVIA FRA SD 3 3:58:42 05:41 10.56
23 1590 BLONDEL BENOIT FRA SH 14 3:59:33 05:42 10.52
24 1589 DELATTRE AURÉLIEN FRA SH 15 4:00:08 05:43 10.49
25 1019 LEGAST FRANCOIS BEL SH 16 4:01:47 05:45 10.42
26 1205 BREFORT MICKAËL FRA SH 17 4:02:51 05:47 10.38
27 1034 DESMIDT VINCENT FRA SH 18 4:02:55 05:47 10.37
28 1621 ALLAN FRANÇOIS FRA V2 3 4:03:16 05:48 10.36
29 1634 MALENGREAUX BENJAMIN FRA SH 19 4:03:36 05:48 10.34
30 1332 JOYEZ TIMOTHÉE FRA SH 20 4:04:05 05:49 10.32
31 1514 DESAINS STÉPHANE FRA V1 5 4:05:16 05:50 10.27
32 1501 REGNIER BENJAMIN FRA SH 21 4:05:37 05:51 10.26
33 1115 TORRESE GUIDO ITA V1 6 4:05:38 05:51 10.26
34 1550 LEHON LUDOVIC FRA SH 22 4:06:47 05:53 10.21
35 1295 LEFEBVRE NICOLAS FRA V2 4 4:06:52 05:53 10.21
36 1461 DELHAYE OLIVIER FRA SH 23 4:07:01 05:53 10.20
37 1286 WAVREILLE GUILLAUME FRA SH 24 4:07:01 05:53 10.20
38 1128 FACON OLIVIER FRA V2 5 4:07:33 05:54 10.18
39 1457 KERIS MONIQUE BEL A2 1 4:07:58 05:54 10.16
40 1575 ADAM GREGOIRE FRA SH 25 4:12:03 06:00 10.00
41 1648 BRUNET PIERRE-DAMIEN FRA SH 26 4:12:04 06:00 10.00
42 1607 LEFEBVRE FRANCOIS FRA V1 7 4:13:39 06:02 9.93
43 1064 CHRISTIAENS ALEXANDRE BEL SH 27 4:13:58 06:03 9.92
44 1061 CRIQUI MATTHIEU FRA V1 8 4:16:34 06:07 9.82
45 1248 BAILLY RENAUD FRA SH 28 4:16:36 06:07 9.82
46 1280 CAMPAGNE FREDERIC FRA SH 29 4:16:54 06:07 9.81
47 1016 FLAHAUT FREDERIC FRA SH 30 4:17:42 06:08 9.78
48 1031 FOURRIER PIERRE-ANTOINE FRA SH 31 4:17:52 06:08 9.77
49 1315 MUYL NICOLAS FRA SH 32 4:18:02 06:09 9.77
50 1190 JEANNETTEAU ANTHONY FRA SH 33 4:18:10 06:09 9.76
51 1110 LARDEY-GOURDEN THOMAS FRA SH 34 4:18:11 06:09 9.76
52 1273 VANDERMEERSCH SIMON FRA SH 35 4:18:27 06:09 9.75
53 1517 MILLE BASTIEN FRA SH 36 4:18:31 06:09 9.75
54 1113 MARTEL SÉBASTIEN FRA V1 9 4:18:37 06:09 9.74
55 1076 SALINGUE LOIC FRA V1 10 4:18:49 06:10 9.74
56 1544 STANGHERLIN GREGOR BEL V1 11 4:18:53 06:10 9.73
57 1259 BOSSUYT GUILLAUME FRA SH 37 4:19:05 06:10 9.73
58 1510 TIERNY ARNAUD FRA V1 12 4:19:09 06:10 9.72
59 1102 PAUWELS BART BEL V1 13 4:19:38 06:11 9.71
60 1219 JUDAS FABRICE FRA SH 38 4:19:40 06:11 9.70
61 1522 DUPORGE MIGUEL FRA SH 39 4:21:02 06:13 9.65
62 1013 NATALE CHRISTOPHE FRA V2 6 4:21:05 06:13 9.65
63 1303 DEROCH MEIDHY FRA SH 40 4:22:01 06:14 9.62
64 1093 PARPETE GUILLAUME FRA SH 41 4:22:06 06:14 9.61
65 1142 ROY SIMON FRA SH 42 4:22:07 06:14 9.61
66 1293 DESTOMBES BENOIT FRA V2 7 4:22:21 06:15 9.61
67 1625 SZYLAR MICKAEL FRA V1 14 4:22:30 06:15 9.60
68 1578 DRAUX PASCAL FRA V2 8 4:22:57 06:16 9.58
69 1427 BOURGUIGNON FABIEN BEL V1 15 4:22:59 06:16 9.58
70 1173 QUEHEN FRANZ FRA V1 16 4:23:05 06:16 9.58
71 2384 SCHIEX GUERRIC FRA V1 17 4:23:27 06:16 9.57
72 1546 SIMONNE CEDRIC FRA V1 18 4:23:46 06:17 9.55
73 1527 DELECROIX BENOIT BEL SH 43 4:23:49 06:17 9.55
74 1577 DELVILLE JEROME FRA V1 19 4:23:51 06:17 9.55
75 1642 EECKHOUT KOEN BEL SH 44 4:24:13 06:17 9.54
76 1237 LEBAILLY PASCAL BEL V1 20 4:24:39 06:18 9.52
77 1298 CHARLES ANTOINE FRA SH 45 4:25:30 06:19 9.49
78 1029 VANHERSECKE HUGUES FRA SH 46 4:26:09 06:20 9.47
79 1599 CASTEL BENJAMIN FRA SH 47 4:26:19 06:20 9.46
80 1164 DE BAROLET HENRI FRA V1 21 4:26:36 06:21 9.45
81 1043 BOULANGER THIBAULT FRA SH 48 4:26:44 06:21 9.45
82 1602 HARLÉ CHRISTOPHE FRA SH 49 4:26:47 06:21 9.45
83 1187 DUVAL SABRINA FRA A1 1 4:26:47 06:21 9.45
84 1548 HERMANT SEBASTIEN FRA SH 50 4:26:49 06:21 9.44
85 1151 LEURENT BRIEUC FRA SH 51 4:28:14 06:23 9.39
86 1223 GUARDIA JEAN-LUC FRA V3 1 4:28:58 06:24 9.37
87 1144 CARLU MARC FRA SH 52 4:29:22 06:25 9.36
88 1250 BUN OLIVIER FRA SH 53 4:29:45 06:25 9.34
89 1573 LESTIENNE EDOUARD FRA SH 54 4:29:47 06:25 9.34
90 1058 HAPKA HUGUES FRA SH 55 4:30:01 06:26 9.33
91 1149 TEDDY DEKIMPE FRA SH 56 4:31:25 06:28 9.28
92 1624 RIESTRA LUEGE JOSÉ MANUEL ESP V1 22 4:31:42 06:28 9.27
93 1628 LECONTE SYLVIE FRA SD 4 4:33:20 06:30 9.22
94 1316 NORET NICOLAS FRA SH 57 4:33:20 06:30 9.22
95 1604 BIZALION LOUIS FRA SH 58 4:33:22 06:31 9.22
96 1001 LEGAGNEUR MATHIEU   SH 59 4:33:35 06:31 9.21
97 1049 LUBRET HENRI FRA SH 60 4:34:49 06:33 9.17
98 1529 GODART JEAN-CHRISTOPHE FRA V1 23 4:35:02 06:33 9.16
99 1168 JONCKHEERE EDDY BEL V2 9 4:35:21 06:33 9.15
100 1030 DELVART VINCENT FRA SH 61 4:35:22 06:33 9.15
101 1251 BOUDIN JEAN-FRANÇOIS FRA V1 24 4:35:31 06:34 9.15
102 1018 WAY STÉPHANE FRA V1 25 4:35:31 06:34 9.15
103 1017 AGNERAY STEPHANE FRA V1 26 4:35:32 06:34 9.15
104 1587 BELHANDOUZ SÉBASTIEN FRA V1 27 4:36:26 06:35 9.12
105 1156 BONMORT JEREMY FRA SH 62 4:36:28 06:35 9.12
106 1194 VILLERS FABIAN BEL SH 63 4:36:35 06:35 9.11
107 1254 LOBOZIAK CHRISTOPHE FRA V1 28 4:36:42 06:35 9.11
108 1253 HADRI SEBASTIEN FRA SH 64 4:37:02 06:36 9.10
109 1455 CHAUCHOY OLIVIER FRA V1 29 4:37:24 06:36 9.08
110 1337 DAVILA XAVIER FRA V1 30 4:37:24 06:36 9.08
111 1497 CHIROUTTE OLIVIER FRA V1 31 4:37:26 06:36 9.08
112 1551 JOLY LUCAS FRA V1 32 4:38:08 06:37 9.06
113 1328 LELIEUR GUILLAUME FRA V1 33 4:38:23 06:38 9.05
114 1081 DEPIERRE JEAN-MICHEL FRA V2 10 4:38:34 06:38 9.05
115 1274 NICODEME BRICE FRA SH 65 4:38:45 06:38 9.04
116 1500 CARBONNIER LAURENT BEL V1 34 4:39:27 06:39 9.02
117 1126 DEGUINES JEAN-BAPTISTE FRA SH 66 4:39:36 06:39 9.01
118 1105 SAVARY RÉMY FRA SH 67 4:39:46 06:40 9.01
119 1021 MESTACK STEPHANE FRA V1 35 4:39:46 06:40 9.01
120 1226 LEROY SIMON FRA SH 68 4:39:57 06:40 9.00
121 1038 BERTRAND GILLES BEL V1 36 4:39:58 06:40 9.00
122 1563 LEPLAT PIERRE ALEXIS FRA SH 69 4:39:59 06:40 9.00
123 1564 LECAT MATHILDE FRA SD 5 4:39:59 06:40 9.00
124 1521 GRÉMONT ROMUALD FRA V1 37 4:40:01 06:40 9.00
125 1519 VASSEUR DIMITRI FRA V1 38 4:40:01 06:40 9.00
126 1619 MARECAUX ERIC FRA SH 70 4:40:27 06:41 8.99
127 1572 DENIS ROMAIN FRA SH 71 4:40:34 06:41 8.98
128 1060 BILLAUT OLIVIER FRA V1 39 4:40:42 06:41 8.98
129 1622 LEFEBVRE JULIEN FRA V1 40 4:40:47 06:41 8.97
130 1046 DERISOUD DAVID FRA V1 41 4:41:04 06:42 8.97
131 1492 WAROT ARNAUD FRA SH 72 4:41:27 06:42 8.95
132 1545 BADON EMMANUEL FRA V1 42 4:41:29 06:42 8.95
133 1278 JOUFFROY BAPTISTE FRA V1 43 4:42:05 06:43 8.93
134 1160 TALPAERT ARTHUR FRA V1 44 4:42:24 06:43 8.92
135 1272 BUTEL DAVID FRA V1 45 4:42:40 06:44 8.92
136 1279 MYON LUC FRA SH 73 4:42:48 06:44 8.91
137 1111 FOSSEUX THIERRY FRA V2 11 4:43:07 06:44 8.90
138 1214 HENRICHS JULIEN BEL SH 74 4:44:22 06:46 8.86
139 1005 MASSET BRUNO FRA V2 12 4:44:32 06:46 8.86
140 1338 CRISTOVA SABINA FRA SD 6 4:45:01 06:47 8.84
141 1027 LECUYER LUDOVIC FRA SH 75 4:45:12 06:47 8.84
142 1305 GREBAUX JEAN-CLAUDE FRA V2 13 4:45:13 06:47 8.84
143 1157 RAMOS MICHEL FRA V1 46 4:45:21 06:48 8.83
144 1479 DUBRULLE JULIEN FRA SH 76 4:45:39 06:48 8.82
145 1612 SARRASIN DAVID FRA V1 47 4:45:42 06:48 8.82
146 1056 KEIL YVES BEL V1 48 4:46:10 06:49 8.81
147 1154 DHALLUIN BENOIT FRA V1 49 4:46:17 06:49 8.80
148 1207 PERRET DIDIER FRA SH 77 4:46:17 06:49 8.80
149 1243 GOLA MANUEL FRA SH 78 4:46:28 06:49 8.80
150 1136 MOROSINI CLEMENT FRA SH 79 4:46:40 06:50 8.79
151 1022 PRZYBYSZEWSKI YOHAN FRA SH 80 4:47:05 06:50 8.78
152 1313 HUREZ DANIEL FRA V1 50 4:47:37 06:51 8.76
153 1347 MARTEL PHILIPPE FRA SH 81 4:47:50 06:51 8.76
154 1048 LUBRET REMY FRA SH 82 4:47:57 06:51 8.75
155 1047 DAUDRUY NICOLAS FRA V1 51 4:47:57 06:51 8.75
156 1583 BEAUCHAMP RODRIGUE FRA SH 83 4:48:04 06:52 8.75
157 1585 MANCEAU PIERRE FRA SH 84 4:48:04 06:52 8.75
158 1515 BAQUET MAÎTÉ BEL SD 7 4:48:40 06:52 8.73
159 1071 NOLLET ANTOINE FRA SH 85 4:48:43 06:52 8.73
160 1052 BEAURAIN JEREMY FRA SH 86 4:48:47 06:53 8.73
161 1287 BELLAND AURELIEN FRA SH 87 4:50:02 06:54 8.69
162 1170 BEBIN SOPHIE FRA A1 2 4:50:08 06:54 8.69
163 1244 BLERVAQUE SEBASTIEN FRA SH 88 4:50:14 06:55 8.68
164 1079 MAQUINGHEN CELINE FRA A1 3 4:50:20 06:55 8.68
165 1039 ROSSIGNON VINCENT BEL V1 52 4:50:26 06:55 8.68
166 1561 TRIPLET MATTHIEU FRA V1 53 4:50:34 06:55 8.67
167 1140 DESWARTE JEREMY FRA SH 89 4:50:47 06:55 8.67
168 1158 DESMULLIER STEPHANE FRA V2 14 4:50:49 06:55 8.67
169 1539 CHOMETTE MARION FRA SD 8 4:51:22 06:56 8.65
170 1535 SAINT LEZER ALEXIS FRA SH 90 4:51:22 06:56 8.65
171 1618 VANDEKAN SYLVIE FRA A1 4 4:51:37 06:57 8.64
172 1106 PERON MATTHIEU FRA SH 91 4:52:03 06:57 8.63
173 1215 BOILLY JÉRÉMY FRA SH 92 4:52:26 06:58 8.62
174 1074 VARNEWYCK DAVID FRA V1 54 4:52:30 06:58 8.62
175 1506 BUTIN VIANNEY FRA V1 55 4:52:30 06:58 8.62
176 1217 ARNAUD CLAUDE FRA V3 2 4:52:32 06:58 8.61
177 1075 RANCHY FABIENNE FRA A1 5 4:52:34 06:58 8.61
178 1135 FRANCOIS NICOLAS FRA SH 93 4:52:41 06:58 8.61
179 1177 LEMÉE MAËLYS FRA SD 9 4:53:04 06:59 8.60
180 1167 CRETON FABRICE FRA V1 56 4:53:13 06:59 8.59
181 1536 ANCHUELO MYLÈNE FRA SD 10 4:53:17 06:59 8.59
182 1309 LESZCZYNSKI RODOLPHE FRA V1 57 4:53:25 06:59 8.59
183 1483 DRIEUX THIBAULT FRA SH 94 4:54:22 07:01 8.56
184 1640 BEAGUE GAETAN FRA V2 15 4:54:44 07:01 8.55
185 1296 LAUWERS VIRGINIE FRA A1 6 4:54:55 07:01 8.54
186 1582 VOLPI GREGORY FRA SH 95 4:55:01 07:01 8.54
187 1002 BRIDOUX CHRISTINE   A2 2 4:55:06 07:02 8.54
188 1143 BOUCHEZ CÉDRIC BEL SH 96 4:55:15 07:02 8.54
189 1299 IUNG ANTHONY FRA SH 97 4:55:30 07:02 8.53
190 1330 MOGUET CECILE FRA A1 7 4:55:36 07:02 8.53
191 1329 FACHE MATHIEU FRA SH 98 4:55:36 07:02 8.53
192 1324 MOGUET FREDDY FRA V1 58 4:55:37 07:02 8.52
193 1227 DELCOURT ANTOINE FRA SH 99 4:55:46 07:03 8.52
194 1229 FAOUEN BRIGITTE FRA A2 3 4:56:04 07:03 8.51
195 1319 CHARLES STÉPHANE BEL V1 59 4:56:04 07:03 8.51
196 1141 PETIT RÉMY FRA V2 16 4:56:14 07:03 8.51
197 1050 JOURNET ROMAIN FRA SH 100 4:56:16 07:03 8.51
198 1222 CHIMOT REMI FRA SH 101 4:57:00 07:04 8.48
199 1620 BRINGUETZ MICHEL FRA V1 60 4:57:13 07:05 8.48
200 1614 MEERSSEMAN DIRK BEL V2 17 4:57:33 07:05 8.47
201 1311 BOUDET CHRISTOPHE FRA V1 61 4:57:42 07:05 8.46
202 1530 MAGNIEZ YOHAN FRA SH 102 4:57:57 07:06 8.46
203 1503 MARTINET ANTHONY FRA SH 103 4:58:27 07:06 8.44
204 1257 ARNAN JEROME FRA V1 62 4:58:32 07:06 8.44
205 1024 GIRAULT THOMAS FRA V1 63 4:58:35 07:07 8.44
206 1639 HERNANDEZ MATHIEU FRA SH 104 4:58:38 07:07 8.44
207 1586 CUVELIER SIMON FRA SH 105 4:59:01 07:07 8.43
208 1087 CHUDYBA JEAN-MARIE FRA V1 64 4:59:01 07:07 8.43
209 1456 LIBOTTE VIRGINIE FRA A1 8 4:59:02 07:07 8.43
210 1239 ARCHIMBAUD YVES FRA V2 18 4:59:08 07:07 8.42
211 1055 GIUNGATO TOMMASO FRA SH 106 4:59:26 07:08 8.42
212 1509 VASSEUR CAROLE FRA A1 9 4:59:31 07:08 8.41
213 1196 HENNON VINCENT FRA V1 65 5:00:18 07:09 8.39
214 1176 FEDERBE THIERRY FRA V1 66 5:00:32 07:09 8.39
215 1270 CALVARY MATTHIEU FRA SH 107 5:01:56 07:11 8.35
216 1290 ALFONSETTI TULLIO FRA V2 19 5:01:56 07:11 8.35
217 1269 TERNISIEN UGO FRA SH 108 5:01:56 07:11 8.35
218 1230 DEBOUDT OLIVIER FRA V2 20 5:02:17 07:12 8.34
219 1317 JACINTO VICTOR FRA V1 67 5:02:25 07:12 8.33
220 1558 CADART SOPHIE FRA A1 10 5:02:26 07:12 8.33
221 1175 DELOBELLE MARCEL FRA V2 21 5:02:38 07:12 8.33
222 1117 LASSON EMMANUEL FRA V1 68 5:02:38 07:12 8.33
223 1247 BALLOT GUILLAUME FRA SH 109 5:02:41 07:12 8.33
224 1127 AUBERT MAGALI FRA A1 11 5:02:59 07:13 8.32
225 1485 HUGOT CHRISTOPHE FRA V2 22 5:03:27 07:14 8.30
226 1484 CORDIER RAPHAEL FRA V1 69 5:03:27 07:14 8.30
227 1576 MAYAUD ROMAIN FRA SH 110 5:03:44 07:14 8.30
228 1145 CAPPELAIRE OLIVIER FRA V2 23 5:04:10 07:15 8.28
229 1099 LEROY OLIVIER FRA SH 111 5:04:21 07:15 8.28
230 1568 DUCARNE LAURENT FRA SH 112 5:04:25 07:15 8.28
231 1252 TAMINIAU ARNAUD BEL SH 113 5:04:44 07:15 8.27
232 1520 DEBOUT YVES FRA V2 24 5:04:51 07:15 8.27
233 1188 PIERON VINCENT BEL V1 70 5:05:28 07:16 8.25
234 1266 ROUSSEAU JULIEN FRA SH 114 5:05:55 07:17 8.24
235 1608 HORDE EMILIE FRA A1 12 5:06:02 07:17 8.23
236 1534 FEUTRY PATRICK FRA V1 71 5:06:05 07:17 8.23
237 1537 DEMARET RAYMOND BEL V3 3 5:06:08 07:17 8.23
238 1635 EICKMAYER RENAUD FRA V1 72 5:06:13 07:17 8.23
239 1543 KINET OLIVIER BEL V1 73 5:06:41 07:18 8.22
240 1574 PAREZ JÉRÉMY BEL SH 115 5:06:47 07:18 8.21
241 1627 DARCIS MARINE BEL SD 11 5:06:50 07:18 8.21
242 1610 GARCIA DANIEL FRA V1 74 5:06:53 07:18 8.21
243 1209 TREMELAT GUILLAUME FRA SH 116 5:07:07 07:19 8.21
244 1494 DUBOYS DES TERMES AXEL FRA V2 25 5:07:07 07:19 8.21
245 1268 BRACKE PIET BEL V2 26 5:07:17 07:19 8.20
246 1065 HIARD ANDRE FRA V2 27 5:07:25 07:19 8.20
247 1139 BOSO ESTHER FRA A1 13 5:07:34 07:19 8.19
248 1191 JOLY GREGORY FRA V1 75 5:07:35 07:19 8.19
249 1114 COULON XAVIER FRA V1 76 5:07:45 07:20 8.19
250 1647 VERRIER REYNALD FRA V1 77 5:08:00 07:20 8.18
251 1181 COLLARD STEPHANE BEL V1 78 5:08:26 07:21 8.17
252 1059 DE PESSEMIER MICHEL BEL V3 4 5:08:30 07:21 8.17
253 1153 LECOMTE SYLVIA FRA SD 12 5:09:04 07:22 8.15
254 1322 DAGBERT JOËL FRA V2 28 5:09:25 07:22 8.14
255 1605 SACRE BERNARD FRA V2 29 5:09:43 07:22 8.14
256 1285 DENTENER VINCENT FRA SH 117 5:09:57 07:23 8.13
257 1189 CARLIER NICOLAS FRA V2 30 5:10:14 07:23 8.12
258 1339 RASSINON SAMUEL FRA SH 118 5:10:23 07:23 8.12
259 1336 CATTEAU LAURENT FRA V1 79 5:11:03 07:24 8.10
260 1600 HESPEL DAMIEN FRA V1 80 5:11:04 07:24 8.10
261 1276 BERTRAND LAURENT FRA V1 81 5:12:08 07:26 8.07
262 1559 BEL GAHLA MOHAMMED FRA V2 31 5:12:09 07:26 8.07
263 1481 MAYEUX PI ERREUR YVES FRA SH 119 5:12:13 07:26 8.07
264 1623 WEPPE LUDOVIC FRA SH 120 5:12:28 07:26 8.06
265 1092 DEMAESENEIRE LUDOVIC FRA SH 121 5:12:41 07:27 8.06
266 1137 SOUFLET DIDIER FRA V1 82 5:13:13 07:27 8.05
267 1108 DUHEZ AURELIEN FRA SH 122 5:13:22 07:28 8.04
268 1216 BRUNIAUX CERTOSIO MARIE O FRA A1 14 5:13:26 07:28 8.04
269 1147 MARICHAL BENJAMIN FRA SH 123 5:14:06 07:29 8.02
270 1169 DUVIEUBOURG DAVID FRA V1 83 5:14:44 07:30 8.01
271 1304 DE MEULENAERE ELS BEL A2 4 5:15:08 07:30 8.00
272 1255 LEDOUX FRANCOIS FRA SH 124 5:15:31 07:31 7.99
273 1091 CLAYTON MAXIMILIEN FRA SH 125 5:15:39 07:31 7.98
274 1090 PONTIER CLÉMENT FRA SH 126 5:15:39 07:31 7.98
275 1089 CARDON GAETAN FRA SH 127 5:15:40 07:31 7.98
276 1638 HUL FRÉDÉRIC FRA V1 84 5:15:58 07:31 7.98
277 1245 DELAHAYE VINCENT FRA V1 85 5:16:22 07:32 7.97
278 1009 HANON HELENE FRA A1 15 5:16:31 07:32 7.96
279 1010 TURI MAURIZIO FRA SH 128 5:16:31 07:32 7.96
280 1513 LESNIAK PHILIPPE FRA V1 86 5:16:53 07:33 7.95
281 1062 BRICHE JULIEN FRA SH 129 5:17:36 07:34 7.93
282 1249 PHELIPPEAU DANIEL FRA V3 5 5:18:21 07:35 7.92
283 1499 SAINT OLIVE GEOFFROY FRA V1 87 5:19:36 07:37 7.88
284 1512 COPPIN JÉROME FRA V1 88 5:19:37 07:37 7.88
285 1133 BONDT XAVIER FRA V1 89 5:19:38 07:37 7.88
286 1104 LEFEBVRE RONALD BEL V1 90 5:20:40 07:38 7.86
287 1525 GALLIEZ DAVID FRA V1 91 5:20:40 07:38 7.86
288 1213 SGARD PHILIPPE FRA V1 92 5:20:46 07:38 7.86
289 1588 DE VOS JONATHAN FRA V1 93 5:21:16 07:39 7.84
290 1200 OLIVIER JEROME FRA SH 130 5:21:18 07:39 7.84
291 1459 VANDERBEKEN TIMOTHÉE FRA SH 131 5:21:19 07:39 7.84
292 1596 OGAR ANNICK FRA A2 5 5:21:32 07:39 7.84
293 1592 LABIJAK RICHARD FRA SH 132 5:22:25 07:41 7.82
294 1234 PELINI VINCENT FRA SH 133 5:22:36 07:41 7.81
295 1233 PASSCHIER SÉBASTIEN FRA V1 94 5:22:36 07:41 7.81
296 1172 CRIGNON PHILIPPE FRA V1 95 5:22:39 07:41 7.81
297 1066 TRUWANT MICHAEL BEL SD 13 5:22:42 07:41 7.81
298 1277 LETOT CHRISTOPHE BEL SH 134 5:22:50 07:41 7.81
299 1000 GUILLEMANT VINCENT   SH 135 5:23:00 07:41 7.80
300 1070 ERNOULD ALAIN BEL V2 32 5:23:19 07:42 7.79
301 1208 BONTE CHARLES BEL SH 136 5:23:19 07:42 7.79
302 1528 RIGOULET DOROTHEE FRA SD 14 5:23:35 07:42 7.79
303 1103 AUDREZET GUILLAUME FRA V1 96 5:23:53 07:43 7.78
304 1524 BAUDY JEROME FRA V1 97 5:24:03 07:43 7.78
305 1197 HORINKA SANDRINE BEL A1 16 5:24:37 07:44 7.76
306 1462 POTDEVIN SANDRA FRA SD 15 5:24:47 07:44 7.76
307 1054 LOMBARD VIVIEN FRA SH 137 5:25:01 07:44 7.75
308 1053 BARTHELEMY NICOLAS FRA V1 98 5:25:01 07:44 7.75
309 1601 CICZORA YANN FRA SH 138 5:25:23 07:45 7.74
310 1518 CAULIER FREDDY FRA V2 33 5:25:53 07:46 7.73
311 1082 NAVET SEBASTIEN FRA V1 99 5:25:54 07:46 7.73
312 1131 KIEKEN GREGORY FRA V1 100 5:25:57 07:46 7.73
313 1644 PECQUEUR MATTHIEU FRA SH 139 5:25:59 07:46 7.73
314 1015 CORDIER GUILLAUME FRA V1 101 5:26:03 07:46 7.73
315 1593 KLÉPAL HERVÉ FRA V1 102 5:26:41 07:47 7.71
316 1067 HARDY STEVE FRA V1 103 5:27:15 07:47 7.70
317 1491 DEJONGHE TIMON BEL V1 104 5:27:35 07:48 7.69
318 1080 SZYJA MONIQUE FRA A2 6 5:27:44 07:48 7.69
319 1281 MEUNIER STÉPHANE FRA V1 105 5:27:51 07:48 7.69
320 1057 GRZESINSKI BERNARD BEL V2 34 5:27:55 07:48 7.68
321 1165 ANNEESSENS JOACHIM BEL SH 140 5:28:27 07:49 7.67
322 1552 HERPSON MICHAEL FRA SH 141 5:28:36 07:49 7.67
323 1134 BAFCOP CHRISTIAN FRA V3 6 5:28:41 07:50 7.67
324 1211 LEFEVRE GÉRARD BEL V2 35 5:29:03 07:50 7.66
325 1297 BALLY OLIVIER FRA V1 106 5:29:36 07:51 7.65
326 1020 DUBUIS ANDY FRA SH 142 5:29:52 07:51 7.64
327 1342 DE BETTIGNIES MARC ANTOINE FRA V1 107 5:30:18 07:52 7.63
328 1343 SENLIS ARNAUD FRA V1 108 5:30:18 07:52 7.63
329 1597 CHARLIER BENOÎT BEL SH 143 5:30:21 07:52 7.63
330 1241 DELEAU HUGUES FRA V1 109 5:30:26 07:52 7.63
331 1037 SELLIEZ CÉLINE FRA A1 17 5:31:38 07:54 7.60
332 1310 COEVOET GUILLAUME FRA SH 144 5:31:39 07:54 7.60
333 1334 VANDOMME MATTHIEU FRA SH 145 5:31:41 07:54 7.60
334 1246 JOOS CHRISTOPHE FRA V1 110 5:31:56 07:54 7.59
335 1163 LAMBERT GAUTHIER FRA SH 146 5:32:23 07:55 7.58
336 1123 BOURRE THIBAUT FRA SH 147 5:32:23 07:55 7.58
337 1306 BRIOIS ANDONIAINA MIRANA FRA A1 18 5:32:50 07:55 7.57
338 1220 VALAY FRANCK FRA V1 111 5:32:59 07:56 7.57
339 1186 RAHMOUNI SALIM FRA V1 112 5:33:13 07:56 7.56
340 1184 BLANC BARBARA FRA SD 16 5:33:33 07:56 7.56
341 1183 MASSET NICOLAS FRA SH 148 5:33:33 07:56 7.56
342 1098 LABIOUSE CHRISTOPHE BEL V1 113 5:33:36 07:57 7.55
343 1532 BECARD DAVID FRA SH 149 5:33:57 07:57 7.55
344 1340 HEYE DAMIEN FRA V1 114 5:33:57 07:57 7.55
345 1542 VANDERMISSEN PATRICIA BEL A2 7 5:33:57 07:57 7.55
346 1579 KARASIAK FABIEN FRA SH 150 5:34:21 07:58 7.54
347 1063 LESNES RENAUD FRA V1 115 5:34:50 07:58 7.53
348 1267 ROBAKOWSKI ANTOINE FRA SH 151 5:34:51 07:58 7.53
349 1331 LEBLANC ETIENNE FRA SH 152 5:35:07 07:59 7.52
350 1341 COURTEVILLE ALEX FRA V1 116 5:35:57 08:00 7.50
351 1476 GLORIEUX JONATHAN BEL SH 153 5:36:06 08:00 7.50
352 1271 BAILLY FRANCOIS FRA SH 154 5:36:08 08:00 7.50
353 1159 PUYPE BENOIT FRA SH 155 5:36:31 08:01 7.49
354 1346 ERIC VANRENTERGHEM FRA V2 36 5:36:51 08:01 7.48
355 1206 DELATTRE SYLVAIN FRA SH 156 5:36:51 08:01 7.48
356 1155 DHALLUIN ISABELLE FRA A1 19 5:36:51 08:01 7.48
357 1119 TILLIE OLIVER BEL V1 117 5:37:01 08:01 7.48
358 1122 DEGRANSART JOHAN FRA V1 118 5:37:06 08:02 7.48
359 1489 TRUONG JULIE BEL SD 17 5:37:09 08:02 7.47
360 1023 MATTIUZ AUDREY BEL SD 18 5:37:43 08:02 7.46
361 1486 DELPIERRE ARNAUD FRA V1 119 5:38:00 08:03 7.46
362 1632 BASTIEN LAURENT FRA V1 120 5:38:01 08:03 7.46
363 1236 BAUGNON ISABELLE FRA SD 19 5:39:02 08:04 7.43
364 1042 DEBROUX JEAN-NOEL FRA V2 37 5:40:35 08:07 7.40
365 1471 THOMAS GEOFFREY FRA SH 157 5:40:48 08:07 7.39
366 1323 DUBREUCQ SIMON FRA SH 158 5:42:30 08:09 7.36
367 1531 EL JAILANI SABRI FRA V1 121 5:43:02 08:10 7.35
368 1498 MAQUET DENIS BEL SH 159 5:43:09 08:10 7.34
369 1235 AYET ANNE-SOPHIE FRA SD 20 5:43:10 08:10 7.34
370 1032 LEMAY JEROME FRA V1 122 5:43:17 08:10 7.34
371 1198 LEROUX GEOFFREY FRA SH 160 5:43:18 08:10 7.34
372 1195 SEILLIER LUDOVIC FRA SH 161 5:43:19 08:10 7.34
373 1615 VILLAIN RENE FRA V3 7 5:43:24 08:11 7.34
374 1132 MASCLET EMMANUEL FRA V2 38 5:43:25 08:11 7.34
375 1325 FERTAS NADIA FRA A1 20 5:43:33 08:11 7.34
376 1302 VANHULLE PHILIPPE FRA V2 39 5:43:33 08:11 7.34
377 1458 COUSIN NICOLAS FRA SH 162 5:43:37 08:11 7.33
378 1598 LINARD GUILLAUME FRA SH 163 5:43:57 08:11 7.33
379 1152 SAULNIER FRANÇOIS FRA SH 164 5:44:20 08:12 7.32
380 1327 CLAIDIERE ANNE SOPHIE FRA A1 21 5:45:32 08:14 7.29
381 1073 HAESEN EDWIN BEL SH 165 5:46:03 08:14 7.28
382 1095 DELATTRE JEAN-SÉBASTIEN FRA V1 123 5:46:14 08:15 7.28
383 1307 SAGOT YANNICK FRA V2 40 5:47:07 08:16 7.26
384 1282 DUCRON CHRISTIAN FRA V2 41 5:48:49 08:18 7.22
385 1085 FORMONT STEPHANE FRA SH 166 5:48:50 08:18 7.22
386 1084 TOP VIRGINIE FRA A1 22 5:48:51 08:18 7.22
387 1201 FOURNIER JÉRÔME FRA SH 167 5:49:03 08:19 7.22
388 1204 COQUERELLE OLIVIA FRA A1 23 5:49:03 08:19 7.22
389 1242 MAQUET ROMANN FRA SH 168 5:49:19 08:19 7.21
390 1507 GAUTHIER SYLVIE BEL SD 21 5:50:16 08:20 7.19
391 1284 PAILLARD FAUSTINE FRA SD 22 5:50:21 08:20 7.19
392 1069 SIGIEZ FABIEN FRA V1 124 5:50:33 08:21 7.19
393 1345 DEMEULENAERE ERIC FRA V2 42 5:50:37 08:21 7.19
394 1202 LE GARFF ERWAN FRA SH 169 5:50:57 08:21 7.18
395 1263 PATOUX ISABELLE FRA A1 24 5:52:08 08:23 7.16
396 1320 BELLINO RELIN MARY FRA SD 23 5:53:14 08:25 7.13
397 1228 BORDAIS FRANCOIS FRA V1 125 5:53:14 08:25 7.13
398 1321 POIGNANT JOSEPH FRA SH 170 5:53:14 08:25 7.13
399 1496 SARAIVA BRUNO FRA SH 171 5:53:18 08:25 7.13
400 1261 LARDET OLIVIER FRA SH 172 5:53:30 08:25 7.13
401 1171 DEVILLERS JULIEN FRA SH 173 5:54:29 08:26 7.11
402 1645 MARTIN CAMILLE FRA SD 24 5:54:56 08:27 7.10
403 1120 HANS LIEVE BEL A1 25 5:55:15 08:28 7.09
404 1041 DYM MONIQUE FRA A2 8 5:56:05 08:29 7.08
405 1538 GRANDMONT ANDRÉ BEL V2 43 5:58:03 08:31 7.04
406 1488 FASSOTTE RAPHAEL FRA V1 126 5:58:35 08:32 7.03
407 1487 BEAUWENS FLORENCE BEL SD 25 5:58:36 08:32 7.03
408 1609 CERNOIS CHRISTOPHE FRA SH 174 5:59:43 08:34 7.01
409 1570 DE NEUVILLE GERALDINE FRA SD 26 6:00:01 08:34 7.00
410 1595 ROUSSEL PHILIPPE FRA V1 127 6:00:50 08:35 6.98
411 1178 BLONDEEL NINA FRA SD 27 6:02:12 08:37 6.96
412 1179 BLONDEEL MARIE FRA SD 28 6:02:13 08:37 6.96
413 1003 MANSOUR NIZAR   V1 128 6:02:17 08:38 6.96
414 1078 DELPLANQUE AUDREY FRA A1 26 6:05:34 08:42 6.89
415 1072 CHEVANDIER YANN FRA V1 129 6:06:06 08:43 6.88
416 1649 SELWA SYLVIE FRA A1 27 6:06:28 08:44 6.88
417 1318 ABAD LAMAS HAYDEE PATRICIA BEL A2 9 6:07:44 08:45 6.85
418 1580 GOSSELIN JEREMY FRA SH 175 6:08:25 08:46 6.84
419 1581 MINNEKEER LAURENT FRA V1 130 6:08:27 08:46 6.84
420 1562 LEJOSNE BENJAMIN FRA SH 176 6:08:47 08:47 6.83
421 1096 WYPYCH ISABELLE FRA A2 10 6:09:04 08:47 6.83
422 1051 DEVOYE CYRIL FRA SH 177 6:09:37 08:48 6.82
423 1004 ABRAMOWICZ ERIC FRA SH 178 6:10:44 08:50 6.80
424 1567 DE LA DÉBUTRIE GUILLAUME FRA V1 131 6:11:17 08:50 6.79
425 1301 DE LA DEBUTRIE ISABELLE FRA A1 28 6:11:18 08:50 6.79
426 1633 REZENTHEL DAVID FRA V2 44 6:11:28 08:51 6.78
427 1482 STYPUIKOWSKI PATRICE FRA V2 45 6:12:00 08:51 6.77
428 1210 CRAPET SEBASTIEN FRA SH 179 6:12:28 08:52 6.77
429 1335 DIÉVAL EDOUARD FRA SH 180 6:12:32 08:52 6.76
430 1162 LEROY JULIEN FRA SH 181 6:14:37 08:55 6.73
431 1083 MAQUIGNON MARGAUX FRA SD 29 6:14:56 08:56 6.72
432 1045 MAQUIGNON DENIS FRA V2 46 6:14:56 08:56 6.72
433 1040 LECOMTE RÉMI FRA SH 182 6:18:04 09:00 6.67
434 1646 ABOGHET JUSTIN FRA SH 183 6:18:04 09:00 6.67
435 1086 CARIOU BERTRAND FRA V2 47 6:18:39 09:01 6.66
436 1256 PETIGNY CHRISTOPHE FRA V1 132 6:21:09 09:05 6.61
437 1138 ROSSIER EMILIE FRA SD 30 6:21:10 09:05 6.61
438 1629 DE LA TAILLE BRUNO FRA V1 133 6:26:50 09:13 6.51
439 1294 TAMIOTTI JÉRÔME FRA V1 134 6:26:57 09:13 6.51
440 1631 PLANE MATTHIEU FRA V1 135 6:26:57 09:13 6.51
441 1630 BOULANGER XAVIER FRA V1 136 6:26:57 09:13 6.51
442 1218 FEYRER YVAN FRA V1 137 6:26:59 09:13 6.51
443 1265 ROSSÉ ADRIEN FRA SH 184 6:27:11 09:13 6.51
444 1264 ADRIAENSSENS MARC BEL V2 48 6:27:51 09:14 6.50
445 1232 GUMANN SINA DEU A1 29 6:28:17 09:15 6.49
446 1146 KIRN ELEONORE FRA SD 31 6:29:59 09:17 6.46
447 1221 COUSIN YOHAN FRA SH 185 6:34:13 09:23 6.39
448 1504 FAUVEL PHILIPPE FRA V1 138 6:40:20 09:32 6.29
449 1643 RINGOT AMANDINE FRA SD 32 6:41:27 09:33 6.28
450 1300 BEGHIN DAVID FRA SH 186 6:54:30 09:52 6.08